Location: George Washington National Forest Helicopter Landing Site
(38.6463°N, 79.0851°W)
Time: 04:00:36
(UTC-04:00)

Tiros 1 - Pass Details

Date: 01 September 2019
Orbit: 630 x 664 km, 48.4° (Epoch: 20 September)

Event Time Altitude Azimuth Distance (km) Brightness Sun altitude
Rises 20:21:28 0° 218° (SW) 2,914 10.8 -7.4°
Reaches altitude 10° 20:23:51 10° 213° (SSW) 2,005 9.9 -7.9°
Maximum altitude 20:28:15 46° 140° (SE) 845 7.4 -8.7°
Drops below altitude 10° 20:32:40 10° 67° (ENE) 2,006 9.2 -9.5°
Enters shadow 20:34:12 - 63° (ENE) 2,591 9.8 -9.8°
